FW1369 Weather Reports


Display with metric or nautical units.
time (UTC)temp
F
wind
direction
speed
MPH
gust
MPH
rain 1hr
in
rain 24hr
in
rain mn
in
humidity
%
barometer
mb
20180427005559 47 226 0.0 1.0 0.00 0.00 0.00 69 1011.0
20180427004055 47 226 0.0 1.0 0.00 0.00 0.00 68 1010.9
20180427002556 48 216 0.0 1.0 0.00 0.00 0.00 65 1010.8
20180427001054 49 255 0.0 3.0 0.00 0.00 0.00 64 1010.9
20180426235554 50 281 0.0 2.0 0.00 0.00 0.00 62 1010.8
20180426234054 51 266 1.0 7.0 0.00 0.00 0.00 58 1010.6
20180426232552 52 302 1.0 6.0 0.00 0.00 0.00 58 1010.5
20180426231051 53 292 0.0 5.0 0.00 0.00 0.00 58 1010.3
20180426225549 53 313 1.0 7.0 0.00 0.01 0.00 57 1010.2
20180426224053 54 281 1.0 3.0 0.00 0.01 0.00 54 1010.1
20180426222550 54 292 2.0 7.0 0.00 0.01 0.00 54 1010.1
20180426221045 54 318 1.0 14.0 0.00 0.01 0.00 54 1010.0
20180426215543 55 263 2.0 10.0 0.00 0.01 0.00 53 1009.8
20180426214043 56 313 1.0 4.0 0.00 0.01 0.00 51 1009.8
20180426212545 56 267 2.0 7.0 0.00 0.01 0.00 51 1009.7
20180426211041 57 273 1.0 4.0 0.00 0.01 0.00 50 1009.6
20180426205544 57 309 2.0 4.0 0.00 0.01 0.00 49 1009.4
20180426204045 56 231 1.0 9.0 0.00 0.01 0.00 53 1009.4
20180426202544 57 286 2.0 8.0 0.00 0.01 0.00 56 1009.4
20180426201043 57 313 2.0 5.0 0.00 0.01 0.00 56 1009.4
20180426195542 56 310 2.0 5.0 0.00 0.01 0.00 56 1009.6
20180426194040 55 214 2.0 8.0 0.00 0.01 0.00 60 1009.5
20180426192533 55 306 1.0 4.0 0.00 0.01 0.00 61 1009.6
20180426191033 54 293 1.0 12.0 0.00 0.01 0.00 63 1009.8
20180426185532 54 293 2.0 9.0 0.00 0.01 0.00 65 1009.8
20180426184028 53 312 2.0 6.0 0.00 0.01 0.00 66 1009.8
20180426182525 51 320 2.0 8.0 0.00 0.01 0.00 68 1009.6
20180426181026 51 272 2.0 5.0 0.00 0.01 0.00 67 1009.6
20180426175525 52 306 3.0 9.0 0.00 0.01 0.00 66 1009.6
20180426174027 53 270 3.0 8.0 0.00 0.01 0.00 70 1009.4
20180426172520 51 284 2.0 8.0 0.00 0.01 0.00 70 1009.3
20180426171023 50 300 2.0 6.0 0.00 0.01 0.00 69 1009.2
20180426165518 48 264 2.0 9.0 0.00 0.01 0.00 76 1009.3
20180426164014 47 288 3.0 12.0 0.00 0.01 0.00 73 1009.3
20180426162513 49 283 2.0 8.0 0.00 0.01 0.00 77 1009.2
20180426161013 46 317 2.0 14.0 0.00 0.01 0.00 77 1009.3
20180426155513 46 298 3.0 9.0 0.00 0.01 0.00 78 1009.2
20180426154009 47 271 3.0 13.0 0.00 0.01 0.00 78 1009.0
20180426152505 45 299 3.0 9.0 0.00 0.01 0.00 80 1009.0
20180426151004 44 277 2.0 6.0 0.00 0.01 0.00 82 1009.0
20180426145504 43 298 3.0 11.0 0.00 0.01 0.00 85 1008.8
20180426144013 43 257 2.0 11.0 0.00 0.01 0.00 87 1008.8
20180426142600 42 302 1.0 5.0 0.00 0.01 0.00 87 1008.7
20180426141001 42 306 2.0 7.0 0.00 0.01 0.00 87 1008.4
20180426135501 41 308 2.0 8.0 0.00 0.02 0.00 88 1008.3
20180426134000 41 292 2.0 9.0 0.00 0.02 0.00 90 1008.3
20180426132459 40 291 1.0 7.0 0.00 0.02 0.00 91 1008.3
20180426130956 40 315 1.0 9.0 0.00 0.02 0.00 92 1008.2
20180426125455 40 308 1.0 9.0 0.00 0.07 0.00 91 1008.1
20180426123952 40 273 1.0 6.0 0.00 0.07 0.00 90 1008.1
20180426122450 40 290 1.0 12.0 0.00 0.07 0.00 89 1008.0
20180426120950 40 259 2.0 8.0 0.00 0.07 0.00 90 1007.6
20180426115447 39 228 2.0 11.0 0.00 0.08 0.00 91 1007.4
20180426113947 39 295 2.0 6.0 0.00 0.08 0.00 91 1007.3
20180426112443 39 316 2.0 8.0 0.00 0.08 0.00 92 1007.3
20180426110938 39 275 1.0 7.0 0.00 0.08 0.00 92 1007.1
20180426105439 39 328 2.0 7.0 0.00 0.09 0.00 92 1006.9
20180426103935 38 298 2.0 7.0 0.00 0.09 0.00 92 1006.7
20180426102436 38 261 2.0 7.0 0.00 0.09 0.00 92 1006.7
20180426095429 39 276 2.0 6.0 0.00 0.09 0.00 90 1006.3
20180426093931 39 300 2.0 10.0 0.00 0.09 0.00 89 1006.3
20180426092425 39 305 1.0 7.0 0.00 0.09 0.00 89 1006.3
20180426090924 39 279 1.0 11.0 0.00 0.09 0.00 89 1006.3
20180426085423 39 281 2.0 8.0 0.00 0.09 0.00 89 1006.2
20180426083927 39 313 2.0 7.0 0.00 0.09 0.00 88 1006.2
20180426082421 40 294 1.0 8.0 0.00 0.09 0.00 87 1006.1
20180426080917 40 302 1.0 6.0 0.00 0.09 0.00 87 1006.0
20180426075415 40 305 2.0 8.0 0.00 0.10 0.00 86 1006.0
20180426073914 41 311 1.0 4.0 0.00 0.10 0.00 87 1005.9
20180426072418 41 298 2.0 10.0 0.00 0.10 0.00 87 1005.7
20180426070910 42 301 1.0 7.0 0.00 0.10 0.00 87 1005.7
20180426065408 42 303 2.0 7.0 0.00 0.11 0.00 87 1005.6
20180426063912 42 270 2.0 9.0 0.00 0.11 0.00 88 1005.6
20180426062406 43 280 2.0 7.0 0.00 0.11 0.00 88 1005.6
20180426060903 43 278 2.0 7.0 0.00 0.11 0.00 90 1005.7
20180426055404 43 296 1.0 8.0 0.00 0.15 0.00 90 1005.9
20180426053900 43 261 1.0 8.0 0.00 0.15 0.00 90 1006.1
20180426052358 44 306 1.0 8.0 0.00 0.15 0.00 91 1006.2
20180426050855 44 261 2.0 10.0 0.00 0.15 0.00 90 1006.2
20180426045355 44 244 2.0 7.0 0.00 0.15 0.00 89 1006.0
20180426043852 45 294 2.0 8.0 0.00 0.15 0.00 90 1005.9
20180426042351 46 314 2.0 13.0 0.00 0.15 0.00 90 1005.7
20180426040848 46 298 1.0 4.0 0.00 0.15 0.00 90 1005.8
20180426035346 47 306 2.0 10.0 0.00 0.17 0.15 91 1005.8
20180426033840 47 300 2.0 9.0 0.00 0.17 0.15 91 1005.7
20180426032335 48 296 1.0 5.0 0.00 0.17 0.15 91 1005.7
20180426030839 49 257 0.0 3.0 0.00 0.17 0.15 92 1005.7
20180426025338 49 254 1.0 7.0 0.00 0.17 0.15 92 1005.8
20180426023833 49 303 1.0 7.0 0.00 0.17 0.15 92 1005.9
20180426022337 50 279 1.0 8.0 0.00 0.17 0.15 91 1005.9
20180426020832 50 302 1.0 7.0 0.00 0.17 0.15 91 1005.9
20180426015334 50 266 0.0 3.0 0.00 0.17 0.15 91 1005.9
20180426013834 50 256 0.0 3.0 0.00 0.17 0.15 92 1005.9
20180426012334 50 281 1.0 5.0 0.00 0.17 0.15 92 1005.9
20180426010831 50 318 2.0 8.0 0.00 0.17 0.15 92 1005.9